Location: Krasnoyarskiy Pitomnik
(51.1333°N, 71.6167°E)
Time: 16:11:46
(UTC+00:00)

A-11 Canister half - Visible Passes

Search period start: 13 April 2024 00:00
Search period end: 23 April 2024 00:00
Orbit: 1513 x 1687 km, 47.2° (Epoch: 12 April)

Date Brightness Start Highest point End Pass type
(mag) Time Alt. Az. Time Alt. Az. Time Alt. Az.
13 Apr 11.1 16:20:53 10° WSW 16:23:34 11° WSW 16:26:16 10° SW visible
14 Apr 11.1 15:57:08 10° WSW 16:00:43 12° WSW 16:04:20 10° SW visible
15 Apr 11.1 15:33:36 10° W 15:37:53 14° SW 15:42:11 10° SSW visible
16 Apr 11.1 15:10:12 10° W 15:15:02 15° SW 15:19:54 10° SSW visible
17 Apr 11.1 14:46:53 10° W 14:52:10 16° SW 14:57:32 10° SSW visible
